N9BSW Weather Reports


time (UTC)temp
F
wind
direction
speed
knots
gust
knots
rain 1hr
in
rain 24hr
in
rain mn
in
humidity
%
barometer
mb
20260503213406 63 258 2.6 3.5 0.00 0.00 0.00 41 1011.9
20260503212902 64 162 3.5 6.1 0.00 0.00 0.00 40 1012.2
20260503212400 64 143 0.9 1.7 0.00 0.00 0.00 40 1012.6
20260503211857 64 173 1.7 3.5 0.00 0.00 0.00 40 1012.5
20260503211354 63 285 1.7 2.6 0.00 0.00 0.00 40 1012.6
20260503210848 63 165 0.0 0.0 0.00 0.00 0.00 42 1012.7
20260503210347 63 227 1.7 2.6 0.00 0.00 0.00 41 1013.1
20260503205841 63 192 1.7 1.7 0.00 0.00 0.00 40 1013.0
20260503205338 63 280 3.5 7.0 0.00 0.00 0.00 40 1013.4
20260503204834 64 196 0.9 1.7 0.00 0.00 0.00 40 1013.2
20260503204332 64 131 2.6 3.5 0.00 0.00 0.00 40 1013.3
20260503203829 64 174 3.5 6.1 0.00 0.00 0.00 40 1013.5
20260503203327 64 260 4.3 8.7 0.00 0.00 0.00 40 1013.9
20260503202823 64 153 2.6 3.5 0.00 0.00 0.00 40 1014.2
20260503202321 64 180 1.7 2.6 0.00 0.00 0.00 40 1014.1
20260503201820 63 189 3.5 6.1 0.00 0.00 0.00 39 1014.4
20260503201316 64 134 1.7 1.7 0.00 0.00 0.00 39 1014.2
20260503200814 64 133 0.0 0.0 0.00 0.00 0.00 39 1014.1
20260503200309 65 181 3.5 5.2 0.00 0.00 0.00 39 1014.5
20260503195807 65 272 3.5 5.2 0.00 0.00 0.00 38 1014.6
20260503195304 65 259 7.0 8.7 0.00 0.00 0.00 36 1014.8
20260503194801 65 169 3.5 5.2 0.00 0.00 0.00 36 1015.0
20260503194256 63 154 1.7 2.6 0.00 0.00 0.00 40 1014.9
20260503193753 62 298 2.6 7.0 0.00 0.00 0.00 40 1015.4
20260503193249 64 183 3.5 6.1 0.00 0.00 0.00 39 1015.4
20260503192745 64 114 1.7 2.6 0.00 0.00 0.00 39 1015.3
20260503192240 66 200 3.5 5.2 0.00 0.00 0.00 37 1015.2
20260503191737 64 199 0.9 1.7 0.00 0.00 0.00 38 1015.2
20260503191234 65 219 5.2 7.0 0.00 0.00 0.00 36 1015.1
20260503190731 66 130 2.6 3.5 0.00 0.00 0.00 38 1015.1
20260503190227 66 244 1.7 2.6 0.00 0.00 0.00 37 1015.1
20260503185725 65 194 0.9 1.7 0.00 0.00 0.00 37 1015.1
20260503185220 64 173 0.0 0.9 0.00 0.00 0.00 39 1015.7
20260503184715 64 152 2.6 3.5 0.00 0.00 0.00 41 1015.4
20260503184212 63 279 5.2 7.8 0.00 0.00 0.00 39 1015.4
20260503183708 63 253 1.7 8.7 0.00 0.00 0.00 38 1015.8
20260503183206 64 279 2.6 11.3 0.00 0.00 0.00 37 1015.8
20260503182704 63 215 1.7 2.6 0.00 0.00 0.00 38 1016.0
20260503182202 62 156 1.7 2.6 0.00 0.00 0.00 38 1016.1
20260503181658 62 160 0.0 0.9 0.00 0.00 0.00 38 1016.3
20260503181155 62 117 1.7 2.6 0.00 0.00 0.00 39 1016.4
20260503180651 62 188 0.9 1.7 0.00 0.00 0.00 39 1016.4
20260503180150 62 155 1.7 1.7 0.00 0.00 0.00 40 1016.5
20260503175647 62 167 2.6 5.2 0.00 0.00 0.00 39 1016.6
20260503175144 62 182 1.7 2.6 0.00 0.00 0.00 36 1016.9
20260503174640 63 169 3.5 3.5 0.00 0.00 0.00 35 1016.7
20260503174137 63 136 0.9 1.7 0.00 0.00 0.00 36 1016.8
20260503173632 61 157 0.0 0.0 0.00 0.00 0.00 38 1017.1
20260503173129 62 152 1.7 1.7 0.00 0.00 0.00 38 1017.2
20260503172626 62 161 0.0 0.9 0.00 0.00 0.00 38 1017.3
20260503172124 62 191 1.7 1.7 0.00 0.00 0.00 37 1017.2
20260503171620 63 134 1.7 2.6 0.00 0.00 0.00 35 1017.2
20260503171117 62 166 1.7 1.7 0.00 0.00 0.00 38 1017.3
20260503170614 61 179 2.6 5.2 0.00 0.00 0.00 36 1017.4
20260503170111 62 163 0.0 0.0 0.00 0.00 0.00 35 1017.2
20260503151006 59 136 0.9 1.7 0.00 0.00 0.00 41 1018.8
20260503150503 59 173 0.0 0.9 0.00 0.00 0.00 41 1018.9
20260503131355 50 162 0.0 0.9 0.00 0.00 0.00 54 1019.2
20260503130853 49 260 1.7 2.6 0.00 0.00 0.00 55 1019.2
20260503130350 49 173 3.5 3.5 0.00 0.00 0.00 54 1019.3
20260503110744 34 159 0.0 0.0 0.00 0.00 0.00 88 1018.8
20260503110241 34 161 0.0 0.0 0.00 0.00 0.00 87 1018.8
20260503100207 34 162 0.0 0.0 0.00 0.00 0.00 91 1018.2
20260503090131 33 160 0.0 0.0 0.00 0.00 0.00 95 1018.2
20260503081602 33 160 0.0 0.0 0.00 0.00 0.00 95 1018.2
20260503081059 33 160 0.0 0.0 0.00 0.00 0.00 95 1018.2
20260503080554 33 160 0.0 0.0 0.00 0.00 0.00 95 1018.5
20260503072529 33 160 0.0 0.0 0.00 0.00 0.00 94 1018.3
20260503072026 33 160 0.0 0.0 0.00 0.00 0.00 94 1018.3
20260503071523 33 160 0.0 0.0 0.00 0.00 0.00 94 1018.5
20260503071020 33 160 0.0 0.0 0.00 0.00 0.00 94 1018.3
20260503070516 33 160 0.0 0.0 0.00 0.00 0.00 94 1018.5
20260503054939 34 160 0.0 0.0 0.00 0.00 0.00 93 1018.9
20260503054435 34 160 0.0 0.0 0.00 0.00 0.00 92 1019.0
20260503053933 34 160 0.0 0.0 0.00 0.00 0.00 92 1019.0
20260503053431 34 160 0.0 0.0 0.00 0.00 0.00 92 1019.0
20260503052927 34 160 0.0 0.0 0.00 0.00 0.00 91 1019.1
20260503052425 34 160 0.0 0.0 0.00 0.00 0.00 91 1019.1
20260503051921 34 160 0.0 0.0 0.00 0.00 0.00 90 1019.0
20260503051417 35 160 0.0 0.0 0.00 0.00 0.00 90 1019.0
20260503050914 35 160 0.0 0.0 0.00 0.00 0.00 90 1018.9
20260503050410 35 160 0.0 0.0 0.00 0.00 0.00 89 1018.9
20260503045908 35 160 0.0 0.0 0.00 0.00 0.00 88 1019.1
20260503045405 35 160 0.0 0.0 0.00 0.00 0.00 88 1019.2
20260503044902 36 160 0.0 0.0 0.00 0.00 0.00 88 1019.1
20260503044359 36 160 0.0 0.0 0.00 0.00 0.00 89 1019.2
20260503043856 35 160 0.0 0.0 0.00 0.00 0.00 89 1019.1
20260503043353 35 160 0.0 0.0 0.00 0.00 0.00 88 1018.9
20260503042849 35 160 0.0 0.0 0.00 0.00 0.00 87 1018.9
20260503042346 36 160 0.0 0.0 0.00 0.00 0.00 87 1018.9
20260503041841 36 160 0.0 0.0 0.00 0.00 0.00 86 1019.2
20260503041339 37 160 0.0 0.0 0.00 0.00 0.00 86 1019.0
20260503040837 37 160 0.0 0.0 0.00 0.00 0.00 86 1018.9
20260503040334 36 160 0.0 0.0 0.00 0.00 0.00 86 1018.8
20260503035831 36 160 0.0 0.0 0.00 0.00 0.00 86 1018.9
20260503035328 37 160 0.0 0.0 0.00 0.00 0.00 85 1019.1
20260503034825 37 160 0.0 0.0 0.00 0.00 0.00 85 1018.8
20260503034322 37 160 0.0 0.0 0.00 0.00 0.00 85 1019.0
20260503033820 36 160 0.0 0.0 0.00 0.00 0.00 85 1019.0
20260503033317 37 160 0.0 0.0 0.00 0.00 0.00 83 1019.1
20260503032815 37 160 0.0 0.0 0.00 0.00 0.00 82 1018.9
20260503032314 37 160 0.0 0.0 0.00 0.00 0.00 81 1019.0
20260503031810 38 160 0.0 0.0 0.00 0.00 0.00 80 1019.2
20260503031309 38 160 0.0 0.0 0.00 0.00 0.00 80 1019.0
20260503030804 38 160 0.0 0.0 0.00 0.00 0.00 80 1019.0
20260503030301 38 160 0.0 0.0 0.00 0.00 0.00 78 1019.1
20260503025758 38 160 0.0 0.0 0.00 0.00 0.00 77 1019.0
20260503025255 39 160 0.0 0.0 0.00 0.00 0.00 76 1019.2
20260503024752 39 160 0.0 0.0 0.00 0.00 0.00 76 1019.3
20260503024249 39 160 0.0 0.0 0.00 0.00 0.00 75 1019.0
20260503023746 39 160 0.0 0.0 0.00 0.00 0.00 74 1019.0
20260503023243 40 160 0.0 0.0 0.00 0.00 0.00 73 1019.0
20260503022740 40 160 0.0 0.0 0.00 0.00 0.00 71 1019.0
20260503022239 40 159 0.0 0.0 0.00 0.00 0.00 71 1018.8
20260503021737 40 159 0.0 0.0 0.00 0.00 0.00 70 1018.9
20260503021232 41 159 0.0 0.0 0.00 0.00 0.00 69 1019.1
20260503020731 41 163 0.0 0.0 0.00 0.00 0.00 68 1018.9
20260503020228 41 164 0.0 0.0 0.00 0.00 0.00 69 1018.8
20260503015724 41 164 0.0 0.0 0.00 0.00 0.00 69 1018.6
20260503015221 41 164 0.0 0.0 0.00 0.00 0.00 67 1018.2
20260503014717 41 164 0.0 0.0 0.00 0.00 0.00 66 1018.3
20260503014215 42 164 0.0 0.0 0.00 0.00 0.00 63 1018.5
20260503013712 42 164 0.0 0.0 0.00 0.00 0.00 61 1018.3
20260503013210 42 164 0.0 0.0 0.00 0.00 0.00 58 1018.6
20260503012707 42 164 0.0 0.0 0.00 0.00 0.00 58 1018.2
20260503012204 43 164 0.0 0.0 0.00 0.00 0.00 56 1018.2
20260503011700 43 164 0.0 0.0 0.00 0.00 0.00 54 1018.3
20260503011157 44 164 0.0 0.0 0.00 0.00 0.00 53 1018.3
20260503010654 45 164 0.0 0.0 0.00 0.00 0.00 51 1018.2
20260503010151 46 164 0.0 0.0 0.00 0.00 0.00 49 1018.2
20260503005648 46 164 0.0 0.0 0.00 0.00 0.00 48 1018.2
20260503005145 47 164 0.0 0.0 0.00 0.00 0.00 46 1018.3
20260503004641 48 164 0.0 0.0 0.00 0.00 0.00 44 1018.1
20260503004140 48 163 0.0 0.0 0.00 0.00 0.00 43 1018.2
20260503003636 49 160 0.0 0.0 0.00 0.00 0.00 43 1018.2
20260503003133 49 169 0.0 0.0 0.00 0.00 0.00 39 1018.2
20260503002630 49 74 0.9 1.7 0.00 0.00 0.00 39 1018.5
20260503002127 50 124 0.0 0.9 0.00 0.00 0.00 40 1018.3
20260503001623 50 132 0.9 0.9 0.00 0.00 0.00 40 1018.0
20260503001120 51 157 0.0 0.0 0.00 0.00 0.00 38 1018.0
20260503000618 51 185 1.7 2.6 0.00 0.00 0.00 36 1017.9
20260503000115 51 97 0.9 0.9 0.00 0.00 0.00 38 1017.7
20260502235611 51 146 0.0 0.9 0.00 0.00 0.00 39 1017.9
20260502235110 51 141 0.0 0.0 0.00 0.00 0.00 38 1017.8
20260502234605 51 163 0.0 0.0 0.00 0.00 0.00 37 1017.8
20260502234103 51 95 0.9 1.7 0.00 0.00 0.00 36 1017.7
20260502233603 51 98 2.6 3.5 0.00 0.00 0.00 36 1017.9
20260502233101 52 173 0.9 2.6 0.00 0.00 0.00 36 1017.9
20260502232556 52 60 0.9 0.9 0.00 0.00 0.00 37 1017.9
20260502232054 53 156 1.7 1.7 0.00 0.00 0.00 36 1017.9
20260502231550 53 42 1.7 1.7 0.00 0.00 0.00 36 1017.8
20260502231049 53 31 3.5 5.2 0.00 0.00 0.00 35 1017.8
20260502230547 53 42 1.7 2.6 0.00 0.00 0.00 35 1017.9
20260502230045 52 157 0.0 0.0 0.00 0.00 0.00 36 1018.0
20260502225540 53 80 1.7 2.6 0.00 0.00 0.00 34 1017.9
20260502225037 53 218 2.6 2.6 0.00 0.00 0.00 35 1018.0
20260502224533 53 105 0.0 0.0 0.00 0.00 0.00 37 1018.0
20260502224031 53 62 2.6 3.5 0.00 0.00 0.00 35 1017.9
20260502223528 52 109 1.7 1.7 0.00 0.00 0.00 37 1018.0
20260502223027 52 60 0.9 1.7 0.00 0.00 0.00 38 1017.9
20260502222523 53 113 0.9 1.7 0.00 0.00 0.00 37 1017.6
20260502222020 54 42 3.5 5.2 0.00 0.00 0.00 34 1018.1
20260502221515 56 101 4.3 6.1 0.00 0.00 0.00 31 1017.8
20260502221013 55 87 0.9 1.7 0.00 0.00 0.00 35 1017.8
20260502220508 56 52 1.7 3.5 0.00 0.00 0.00 35 1018.0
20260502220005 56 79 0.9 1.7 0.00 0.00 0.00 35 1017.9
20260502215503 55 218 2.6 2.6 0.00 0.00 0.00 35 1017.9
20260502214959 55 49 2.6 5.2 0.00 0.00 0.00 35 1017.8
20260502214456 56 96 3.5 7.0 0.00 0.00 0.00 35 1017.6
20260502213954 57 94 0.9 1.7 0.00 0.00 0.00 36 1017.6